Simultaneous Nadir Overpasses (SNOs) Predictions

Prediction of SNOs between FY3D and AQUA Satellite Orbit:

Table of predicted SNOs for the next 14.0 days since TLE Epoch: 6/29/2019
Index Date (FY3D) Time (FY3D) Lat,Lon (FY3D) SZA (FY3D ) Date (AQUA) Time (AQUA) Lat,Lon (AQUA) SZA (AQUA ) Distance(km) Time Diff (sec)
1 06/30/2019 17:30:52 69.86, 144.18 81.51 06/30/2019 17:31:01 69.85, 144.15 81.51 1.36 9
2 06/30/2019 18:20:50 -72.38, -44.18 101.25 06/30/2019 18:19:43 -72.38, -44.20 101.18 0.45 67
3 07/03/2019 09:47:28 69.38,-100.63 82.24 07/03/2019 09:47:38 69.38,-100.61 82.22 0.93 10
4 07/03/2019 10:37:25 -71.97, 70.91 100.58 07/03/2019 10:36:19 -71.98, 70.97 100.54 2.07 66
5 07/06/2019 02:03:44 69.90, 16.02 81.93 07/06/2019 02:03:56 69.90, 15.97 81.94 1.97 12
6 07/06/2019 02:53:43 -72.38,-172.42 100.77 07/06/2019 02:52:39 -72.38,-172.44 100.71 0.98 64
7 07/08/2019 18:20:19 69.48, 131.28 82.70 07/08/2019 18:20:32 69.48, 131.27 82.69 0.07 13
8 07/08/2019 19:10:16 -72.07, -57.13 100.13 07/08/2019 19:09:13 -72.07, -57.11 100.08 1.07 63
9 07/11/2019 10:36:53 69.10,-113.37 83.45 07/11/2019 10:37:07 69.10,-113.33 83.42 1.66 14




NCC Satellite Simultaneous Nadir Overpasses (SNOs) Prediction Service
